Fremont, MI

5:30 PM EST on November 20, 2019 (GMT -0500)
Fremont

Weather History for KFFX - September, 2019

Change the Weather History Date:

Sunday, September 8, 2019

  Actual Average (WUND) Record (WUND)
Temperature  
Mean Temperature 58 °F -  
Max Temperature 64 °F - - (-1)
Min Temperature 51 °F - - (-1)
Degree Days  
Heating Degree Days 8    
Growing Degree Days 8 (Base 50)    
Moisture  
Dew Point 48 °F    
Average Humidity 71    
Maximum Humidity 92    
Minimum Humidity 49    
Precipitation  
Precipitation 0.00 in - - ()
Sea Level Pressure  
Sea Level Pressure 30.15 in    
Wind  
Wind Speed 4 mph ()    
Max Wind Speed 12 mph    
Max Gust Speed 16 mph    
Visibility 10.0 miles    
Events Rain    
Averages and records for this station are not official NWS values.
T = Trace of Precipitation, MM = Missing Value Source: Averaged Metar Reports

Daily Weather History Graph

Daily Weather History Graph

Search for Another Location

Airport or City:

Astronomy

Sep. 08, 2019 Rise Set
Actual Time 7:15 AM EDT 8:07 PM EDT
Civil Twilight 6:46 AM EDT 8:36 PM EDT
Nautical Twilight 6:11 AM EDT 9:10 PM EDT
Astronomical Twilight 5:35 AM EDT 9:46 PM EDT
Moon 5:24 PM EDT (9/8) 1:45 AM EDT (9/8)
Length of Visible Light 13h 49m
Length of Day
12h 51m
Waxing Gibbous, 75% of the Moon is Illuminated
Sep 8
Waxing Gibbous
Sep 14
Full
Sep 21
Last Quarter
Sep 28
New
Oct 5
First Quarter

Hourly Weather History & Observations

Time (EDT) Temp. Dew Point Humidity Pressure Visibility Wind Dir Wind Speed Gust Speed Precip Events Conditions
12:16 AM 57.2 °F 52.3 °F 84% 30.07 in 10.0 mi Calm Calm - N/A   Clear
12:35 AM 57.2 °F 52.2 °F 83% 30.08 in 10.0 mi North 4.6 mph - N/A   Clear
12:36 AM 57.2 °F 52.2 °F 83% 30.08 in 10.0 mi NNE 4.6 mph - N/A   Clear
12:55 AM 57.0 °F 50.7 °F 79% 30.08 in 10.0 mi North 4.6 mph - N/A   Clear
12:56 AM 56.8 °F 50.7 °F 80% 30.08 in 10.0 mi North 5.8 mph - N/A   Clear
1:15 AM 56.3 °F 50.4 °F 80% 30.08 in 10.0 mi North 3.5 mph - N/A   Clear
1:38 AM 56.3 °F 50.7 °F 82% 30.09 in 10.0 mi North 3.5 mph - N/A   Clear
1:56 AM 55.4 °F 50.9 °F 85% 30.10 in 10.0 mi North 3.5 mph - N/A   Clear
2:15 AM 55.0 °F 50.0 °F 83% 30.09 in 10.0 mi North 3.5 mph - N/A   Clear
2:35 AM 54.7 °F 50.0 °F 84% 30.09 in 10.0 mi NNE 3.5 mph - N/A   Clear
2:59 AM 55.0 °F 50.0 °F 83% 30.08 in 10.0 mi NNE 9.2 mph - N/A   Clear
3:17 AM 54.5 °F 49.6 °F 84% 30.08 in 10.0 mi North 4.6 mph - N/A   Clear
3:35 AM 54.0 °F 49.5 °F 85% 30.08 in 10.0 mi North 3.5 mph - N/A   Clear
3:55 AM 53.8 °F 48.9 °F 84% 30.08 in 10.0 mi North 3.5 mph - N/A   Clear
4:15 AM 53.6 °F 49.1 °F 85% 30.08 in 10.0 mi Calm Calm - N/A   Clear
4:38 AM 52.9 °F 49.5 °F 88% 30.08 in 10.0 mi Calm Calm - N/A   Clear
4:56 AM 52.7 °F 49.5 °F 89% 30.09 in 10.0 mi Calm Calm - N/A   Clear
5:15 AM 52.7 °F 49.3 °F 88% 30.09 in 10.0 mi Calm Calm - N/A   Clear
5:16 AM 52.7 °F 49.3 °F 88% 30.09 in 10.0 mi Calm Calm - N/A   Clear
5:35 AM 52.7 °F 49.3 °F 88% 30.09 in 10.0 mi Calm Calm - N/A   Clear
5:36 AM 52.7 °F 49.3 °F 88% 30.09 in 10.0 mi Calm Calm - N/A   Clear
5:59 AM 52.7 °F 48.9 °F 87% 30.10 in 10.0 mi Calm Calm - N/A   Clear
6:17 AM 52.7 °F 48.9 °F 87% 30.10 in 10.0 mi Calm Calm - N/A   Clear
6:35 AM 52.5 °F 48.7 °F 87% 30.11 in 10.0 mi Calm Calm - N/A   Clear
6:55 AM 51.8 °F 49.1 °F 90% 30.12 in 10.0 mi Calm Calm - N/A   Clear
7:15 AM 51.6 °F 48.9 °F 90% 30.14 in 10.0 mi Calm Calm - N/A   Clear
7:20 AM 52.2 °F 49.1 °F 89% 30.14 in 10.0 mi Calm Calm - N/A   Clear
7:38 AM 51.3 °F 48.7 °F 91% 30.15 in 10.0 mi Calm Calm - N/A   Scattered Clouds
7:56 AM 51.3 °F 49.1 °F 92% 30.15 in 10.0 mi Calm Calm - N/A   Scattered Clouds
8:15 AM 52.7 °F 50.2 °F 91% 30.15 in 10.0 mi Calm Calm - N/A   Clear
8:16 AM 52.7 °F 50.2 °F 91% 30.15 in 10.0 mi Calm Calm - N/A   Clear
8:35 AM 53.1 °F 50.5 °F 91% 30.15 in 10.0 mi Calm Calm - N/A   Clear
8:36 AM 53.1 °F 50.5 °F 91% 30.15 in 10.0 mi Calm Calm - N/A   Clear
8:58 AM 53.8 °F 50.4 °F 88% 30.15 in 10.0 mi Calm Calm - N/A   Clear
9:17 AM 55.8 °F 49.6 °F 80% 30.16 in 10.0 mi ENE 3.5 mph - N/A   Scattered Clouds
9:35 AM 56.1 °F 48.4 °F 75% 30.17 in 10.0 mi NE 5.8 mph - N/A   Scattered Clouds
9:55 AM 55.8 °F 49.1 °F 78% 30.17 in 10.0 mi ENE 4.6 mph - N/A   Overcast
9:56 AM 55.8 °F 49.3 °F 79% 30.17 in 10.0 mi ENE 4.6 mph - N/A   Overcast
10:15 AM 55.8 °F 49.6 °F 80% 30.17 in 10.0 mi ENE 6.9 mph - N/A   Overcast
10:20 AM 55.8 °F 49.3 °F 79% 30.17 in 10.0 mi ENE 5.8 mph - N/A   Overcast
10:38 AM 55.8 °F 49.6 °F 80% 30.16 in 10.0 mi ENE 8.1 mph - N/A   Overcast
10:56 AM 56.3 °F 50.0 °F 79% 30.18 in 10.0 mi Calm Calm - N/A   Overcast
11:16 AM 57.0 °F 49.5 °F 76% 30.18 in 10.0 mi East 4.6 mph - N/A   Overcast
11:35 AM 57.4 °F 48.9 °F 73% 30.18 in 10.0 mi ENE 5.8 mph - N/A   Overcast
11:36 AM 57.4 °F 48.7 °F 73% 30.18 in 10.0 mi ENE 5.8 mph - N/A   Overcast
11:59 AM 58.6 °F 48.4 °F 69% 30.17 in 10.0 mi ENE 5.8 mph - N/A   Scattered Clouds
12:17 PM 59.0 °F 48.0 °F 67% 30.16 in 10.0 mi ENE 6.9 mph - N/A   Mostly Cloudy
12:35 PM 59.4 °F 47.5 °F 65% 30.16 in 10.0 mi East 8.1 mph - N/A   Overcast
12:55 PM 59.4 °F 47.5 °F 65% 30.16 in 10.0 mi ENE 6.9 mph - N/A   Overcast
12:56 PM 59.5 °F 47.7 °F 65% 30.16 in 10.0 mi ENE 8.1 mph - N/A   Overcast
1:15 PM 60.3 °F 46.8 °F 61% 30.17 in 10.0 mi ENE 8.1 mph - N/A   Overcast
1:20 PM 60.4 °F 47.1 °F 61% 30.17 in 10.0 mi East 8.1 mph - N/A   Overcast
1:38 PM 61.7 °F 46.8 °F 58% 30.17 in 10.0 mi East 8.1 mph - N/A   Overcast
1:56 PM 62.4 °F 46.6 °F 56% 30.17 in 10.0 mi ENE 9.2 mph - N/A   Mostly Cloudy
2:15 PM 62.4 °F 46.0 °F 55% 30.17 in 10.0 mi East 8.1 mph - N/A   Mostly Cloudy
2:35 PM 63.5 °F 46.2 °F 53% 30.17 in 10.0 mi East 8.1 mph - N/A   Overcast
2:36 PM 63.5 °F 46.2 °F 53% 30.17 in 10.0 mi East 9.2 mph - N/A   Overcast
2:59 PM 63.0 °F 45.0 °F 52% 30.17 in 10.0 mi ENE 6.9 mph - N/A   Overcast
3:17 PM 63.0 °F 45.0 °F 52% 30.18 in 10.0 mi East 5.8 mph - N/A   Overcast
3:35 PM 62.8 °F 44.8 °F 52% 30.18 in 10.0 mi SE 6.9 mph - N/A   Overcast
3:55 PM 62.6 °F 45.5 °F 54% 30.17 in 10.0 mi East 6.9 mph - N/A Rain Light Rain
4:20 PM 64.4 °F 45.5 °F 50% 30.17 in 10.0 mi ESE 5.8 mph - N/A   Overcast
4:38 PM 64.4 °F 45.0 °F 49% 30.17 in 10.0 mi East 6.9 mph - N/A   Overcast
4:56 PM 64.8 °F 45.5 °F 50% 30.17 in 10.0 mi East 4.6 mph - N/A   Overcast
5:15 PM 64.4 °F 46.4 °F 52% 30.17 in 10.0 mi ENE 11.5 mph 16.1 mph N/A   Overcast
5:35 PM 64.8 °F 46.8 °F 52% 30.16 in 10.0 mi ENE 10.4 mph - N/A   Overcast
5:59 PM 63.1 °F 45.9 °F 53% 30.16 in 10.0 mi East 9.2 mph - N/A   Overcast
6:17 PM 63.0 °F 45.9 °F 54% 30.16 in 10.0 mi East 6.9 mph - N/A   Mostly Cloudy
6:35 PM 62.6 °F 46.2 °F 55% 30.16 in 10.0 mi East 6.9 mph - N/A   Scattered Clouds
6:55 PM 63.3 °F 45.9 °F 53% 30.16 in 10.0 mi East 9.2 mph - N/A   Scattered Clouds
7:15 PM 61.9 °F 45.7 °F 55% 30.16 in 10.0 mi East 6.9 mph - N/A   Scattered Clouds
7:38 PM 60.8 °F 46.0 °F 58% 30.16 in 10.0 mi East 6.9 mph - N/A   Mostly Cloudy
7:56 PM 60.3 °F 46.6 °F 61% 30.17 in 10.0 mi East 4.6 mph - N/A   Overcast
8:15 PM 59.9 °F 46.8 °F 62% 30.17 in 10.0 mi East 6.9 mph - N/A   Mostly Cloudy
8:16 PM 59.9 °F 46.8 °F 62% 30.17 in 10.0 mi East 8.1 mph - N/A   Mostly Cloudy
8:35 PM 59.4 °F 47.3 °F 64% 30.17 in 10.0 mi East 6.9 mph - N/A   Mostly Cloudy
8:59 PM 59.2 °F 47.1 °F 64% 30.18 in 10.0 mi East 6.9 mph - N/A   Overcast
9:16 PM 59.0 °F 46.9 °F 64% 30.19 in 10.0 mi East 5.8 mph - N/A   Mostly Cloudy
9:35 PM 58.6 °F 46.0 °F 63% 30.20 in 10.0 mi East 6.9 mph - N/A   Scattered Clouds
9:36 PM 58.5 °F 46.0 °F 63% 30.20 in 10.0 mi East 6.9 mph - N/A   Scattered Clouds
9:55 PM 58.6 °F 45.0 °F 60% 30.21 in 10.0 mi East 8.1 mph - N/A   Overcast
10:15 PM 58.3 °F 44.4 °F 60% 30.21 in 10.0 mi East 9.2 mph - N/A   Overcast
10:38 PM 58.1 °F 44.1 °F 60% 30.21 in 10.0 mi East 5.8 mph - N/A   Overcast
10:56 PM 57.7 °F 43.7 °F 60% 30.22 in 10.0 mi East 8.1 mph - N/A   Overcast
11:15 PM 57.4 °F 43.7 °F 60% 30.21 in 10.0 mi East 9.2 mph - N/A   Overcast
11:16 PM 57.4 °F 43.7 °F 60% 30.21 in 10.0 mi East 9.2 mph - N/A   Overcast
11:35 PM 57.2 °F 43.7 °F 61% 30.22 in 10.0 mi East 8.1 mph - N/A   Overcast
11:36 PM 57.2 °F 43.7 °F 61% 30.22 in 10.0 mi East 6.9 mph - N/A   Overcast
11:59 PM 57.2 °F 43.5 °F 60% 30.22 in 10.0 mi East 4.6 mph - N/A   Overcast